This is the latest recevied weather packets stored in our database for station/object PD2BVG. If no packets are shown the sender has not sent any weather packets the latest 1 day(s).
| Time | Temp. | Humidity | Pressure | Rain* | Wind** | Luminosity | Snow |
|---|---|---|---|---|---|---|---|
| 1777978503 | 13.89° C | 74% | 1011.6 hPa | 0 mm | 3.58 m/s, 317° | 596 W/m² | - |
| 1777978442 | 13.89° C | 74% | 1011.6 hPa | 0 mm | 4.02 m/s, 344° | 596 W/m² | - |
| 1777978382 | 13.89° C | 73% | 1011.6 hPa | 0 mm | 4.47 m/s, 355° | 584 W/m² | - |
| 1777978321 | 13.89° C | 73% | 1011.6 hPa | 0 mm | 4.92 m/s, 340° | 575 W/m² | - |
| 1777978264 | 13.89° C | 73% | 1011.6 hPa | 0 mm | 4.47 m/s, 323° | 492 W/m² | - |
| 1777978206 | 13.89° C | 74% | 1011.6 hPa | 0 mm | 4.47 m/s, 0° | 512 W/m² | - |
| 1777978146 | 13.89° C | 74% | 1011.6 hPa | 0 mm | 4.02 m/s, 338° | 579 W/m² | - |
| 1777978084 | 13.89° C | 74% | 1011.6 hPa | 0 mm | 3.58 m/s, 0° | 651 W/m² | - |
| 1777978022 | 13.89° C | 75% | 1011.6 hPa | 0 mm | 3.58 m/s, 354° | 649 W/m² | - |
| 1777977962 | 13.89° C | 74% | 1011.5 hPa | 0 mm | 4.02 m/s, 0° | 637 W/m² | - |
| 1777977903 | 13.89° C | 74% | 1011.6 hPa | 0 mm | 4.02 m/s, 313° | 603 W/m² | - |
| 1777977842 | 13.89° C | 74% | 1011.6 hPa | 0 mm | 4.47 m/s, 344° | 623 W/m² | - |
| 1777977782 | 13.89° C | 73% | 1011.6 hPa | 0 mm | 5.36 m/s, 10° | 608 W/m² | - |
| 1777977721 | 14.44° C | 74% | 1011.6 hPa | 0 mm | 5.36 m/s, 0° | 638 W/m² | - |
| 1777977663 | 14.44° C | 74% | 1011.6 hPa | 0 mm | 4.02 m/s, 329° | 528 W/m² | - |
| 1777977602 | 14.44° C | 75% | 1011.6 hPa | 0 mm | 2.68 m/s, 350° | 631 W/m² | - |
| 1777977543 | 14.44° C | 74% | 1011.7 hPa | 0 mm | 3.58 m/s, 0° | 637 W/m² | - |
| 1777977482 | 14.44° C | 73% | 1011.7 hPa | 0 mm | 4.02 m/s, 0° | 610 W/m² | - |
| 1777977422 | 14.44° C | 73% | 1011.7 hPa | 0 mm | 3.58 m/s, 0° | 617 W/m² | - |
| 1777977362 | 14.44° C | 73% | 1011.7 hPa | 0 mm | 3.13 m/s, 0° | 621 W/m² | - |
| 1777977302 | 14.44° C | 72% | 1011.8 hPa | 0 mm | 3.58 m/s, 354° | 535 W/m² | - |
| 1777977242 | 14.44° C | 73% | 1011.7 hPa | 0 mm | 4.02 m/s, 0° | 436 W/m² | - |
| 1777977181 | 14.44° C | 73% | 1011.7 hPa | 0 mm | 3.58 m/s, 333° | 658 W/m² | - |
| 1777977122 | 14.44° C | 73% | 1011.7 hPa | 0 mm | 3.13 m/s, 290° | 563 W/m² | - |
| 1777977062 | 14.44° C | 72% | 1011.8 hPa | 0 mm | 3.13 m/s, 350° | 624 W/m² | - |
* Rain latest hour (hover to see other rain measurements)
** Current wind speed in m/s (hover to see current wind gust speed)